Regional Weather Roundup
Issued by NWS Cleveland, OH

Home | Current Version | Previous Version | Graphics & Text | Print | Product List | Glossary On
Versions: 1 2 3 4 5 6 7 8 9 10 11 12 13 14 15 16 17 18 19 20 21 22 23 24 25 26 27 28 29 30 31 32 33 34 35 36 37 38 39 40 41 42 43 44 45 46 47 48 49 50
000
ASUS41 KCLE 290700
RWRCLE
OHIO REGIONAL WEATHER ROUNDUP
NATIONAL WEATHER SERVICE WILMINGTON, OH
200 AM EST MON DEC 29 2014

NOTE: "FAIR" INDICATES FEW OR NO CLOUDS BELOW 12,000 FEET WITH NO
SIGNIFICANT WEATHER AND/OR OBSTRUCTIONS TO VISIBILITY.

OHZ001>008-015>018-024>027-034-035-043-044-290800-
   NORTHWEST OHIO

CITY           SKY/WX    TMP DP  RH WIND       PRES   REMARKS
DEFIANCE       CLEAR     24  21  88 CALM      30.24S FOG
FINDLAY        CLEAR     26  22  84 NW3       30.21S
TOLEDO EXPRESS CLEAR     23  20  88 NW3       30.22S
TOLEDO METCALF CLEAR     25  20  81 W5        30.24R WCI  19
LIMA           CLEAR     29  24  82 NW7       30.21S HAZE    WCI  22
$$

OHZ009>014-019>023-028>033-038-089-290800-
   NORTHEAST OHIO

CITY           SKY/WX    TMP DP  RH WIND       PRES   REMARKS
CLE-HOPKINS    MOCLDY    30  27  88 SW3       30.22S
CLE-LAKEFRONT  CLOUDY    35  25  66 NW9       30.20R WCI  28
CUY CO. ARPT   NOT AVBL
LORAIN-ELYRIA  MOCLDY    28  25  88 W3        30.21R
ASHTABULA      CLOUDY    31  24  75 NW3       30.19R
AKRON-CANTON   MOCLDY    29  25  85 NW3       30.18R
WOOSTER        NOT AVBL
MANSFIELD      CLEAR     27  24  89 W3        30.19R
YOUNGSTOWN     CLOUDY    31  25  78 W6        30.17R WCI  25
$$

OHZ042-051>053-060>062-070>072-077>081-290800-
  SOUTHWEST OHIO

CITY           SKY/WX    TMP DP  RH WIND       PRES   REMARKS
CINC-COVINGTON MOCLDY    30  24  78 N7        30.20R WCI  23
CINC-LUNKEN    CLOUDY    30  28  92 N5        30.24R WCI  25
HAMILTON       MOCLDY    26  24  92 CALM      30.24R FOG
DAYTON         NOT AVBL
WRIGHT-PAT AFB PTCLDY    28  26  91 N3        30.22R
DAYTON GENERAL PTCLDY    27  24  89 N6        30.20R WCI  20
WILMINGTON     MOCLDY    28  25  88 N5        30.20R FOG     WCI  23
$$

OHZ036-037-039>041-045>050-054>059-063>069-073>076-082>088-290800-
  CENTRAL AND SOUTHEAST OHIO

CITY           SKY/WX    TMP DP  RH WIND       PRES   REMARKS
COLUMBUS       MOCLDY    29  25  85 N5        30.20S WCI  24
OSU AIRPORT    MOCLDY    27  24  89 N6        30.20S WCI  20
BOLTON FIELD   NOT AVBL
RICKENBACK AFB NOT AVBL
NEWARK         MOCLDY    31  26  82 N5        30.19R WCI  26
MARION         PTCLDY    25  22  88 CALM      30.21R
LANCASTER      CLOUDY    32  28  85 N3        30.21R
ZANESVILLE     CLOUDY    31  27  85 N3        30.19R
NEW PHILLY     MOCLDY    33  27  78 NW6       30.19S WCI  28
$$



USA.gov is the U.S. government's official web portal to all federal, state and local government web resources and services.